カタログに戻る

TITAN 3C TRANSTAGE DEB

運用中HEO
NORAD 36981·DEBRIS·🇺🇸 United States

打ち上げ Dec 21, 1965 から Cape Canaveral Space Force Station

Loading…

次のパス (今後24時間)

TLE

最新Source: Space-Track

元期: Sep 8, 2026, 09:29 UTC

1 36981U 65108DM  26251.39514017  .00005914  00000-0  26296-2 0  9999
2 36981  29.7606  44.5583 6635981 141.5982 292.5278  3.10460505134283

AllMySatでTITAN 3C TRANSTAGE DEBをリアルタイム追跡

Download on the App Store